Skip Page Navigation
NASA JPL Caltech
NASA Logo - Jet Propulsion Laboratory + View the NASA Portal
+ Center for Near-Earth Object Studies
JPL Home Earth Solar System Stars & Galaxies Technology
JPL Solar System Dynamics
BODIES ORBITS EPHEMERIDES TOOLS PHYSICAL DATA DISCOVERY FAQ SITE MAP
JPL Small-Body Database Browser
Search: [ help ]  
136167 (2003 UP85)
Classification: Main-belt Asteroid          SPK-ID: 2136167
Ephemeris | Orbit Diagram | Orbital Elements | Mission Design | Physical Parameters | Discovery Circumstances ]

[ show orbit diagram ]
Orbital Elements at Epoch 2459000.5 (2020-May-31.0) TDB
Reference: JPL 16 (heliocentric ecliptic J2000)
 Element Value Uncertainty (1-sigma)   Units 
e .1490302398873518 3.4542e-08  
a 2.214101561290507 1.0233e-08 au
q 1.884133474476423 7.5842e-08 au
i 3.312539934961891 3.8185e-06 deg
node 70.13995946687908 8.4824e-05 deg
peri 215.4233762429376 8.6603e-05 deg
M 108.321679020689 1.64e-05 deg
tp 2458638.417432255942
(2019-Jun-03.91743226)
5.5237e-05 TDB
period 1203.357680256826
3.29
8.3424e-06
2.284e-08
d
yr
n .2991629221356422 2.074e-09 deg/d
Q 2.544069648104591 1.1758e-08 au
  Orbit Determination Parameters
   # obs. used (total)      495  
   data-arc span      7435 days (20.36 yr)  
   first obs. used      1999-06-15  
   last obs. used      2019-10-23  
   planetary ephem.      DE431  
   SB-pert. ephem.      SB431-N16  
   condition code      0  
   norm. resid. RMS      .61832  
   source      ORB  
   producer      Otto Matic  
   solution date      2019-Nov-07 16:01:10  

Additional Information
 Earth MOID = .868904 au 
 Jupiter MOID = 2.59313 au 
 T_jup = 3.638 
[ show covariance matrix ]

Ephemeris | Orbit Diagram | Orbital Elements | Mission Design | Physical Parameters | Discovery Circumstances ]

Physical Parameter Table
Parameter Symbol Value Units Sigma Reference Notes
absolute magnitude H 16.8   n/a MPO436669  

136167 (2003 UP85)          Discovered 2003-Oct-18 by Spacewatch at Kitt Peak
Reference: 20060907/Numbers.arcLast Updated: 2006-09-10
Ephemeris | Orbit Diagram | Orbital Elements | Mission Design | Physical Parameters | Discovery Circumstances ]
ABOUT SSD CREDITS/AWARDS PRIVACY/COPYRIGHT GLOSSARY LINKS
FirstGov 2020-Aug-07 22:10 UT
(server date/time)  
NASA Home Page
Site Manager:   Ryan S. Park
Webmaster  Alan B. Chamberlin